Time,TemperatureF,DewpointF,PressureIn,WindDirection,WindDirectionDegrees,WindSpeedMPH,WindSpeedGustMPH,Humidity,HourlyPrecipIn,Conditions,Clouds,dailyrainin,SoftwareType,DateUTC
2013-03-22 00:01:00,29.4,13.0,30.13,ESE,114,0.0,0.0,50,0.00,,,0.00,weatherlink.com 1.10,2013-03-22 04:01:00,
2013-03-22 00:16:00,29.1,12.0,30.14,ESE,116,0.0,0.0,50,0.00,,,0.00,weatherlink.com 1.10,2013-03-22 04:16:00,
2013-03-22 00:31:00,28.7,13.0,30.13,ESE,116,0.0,0.0,52,0.00,,,0.00,weatherlink.com 1.10,2013-03-22 04:31:00,
2013-03-22 00:46:00,28.9,14.0,30.13,East,94,0.0,0.0,54,0.00,,,0.00,weatherlink.com 1.10,2013-03-22 04:46:00,
2013-03-22 01:01:00,28.6,13.0,30.13,East,95,0.0,0.0,52,0.00,,,0.00,weatherlink.com 1.10,2013-03-22 05:01:00,
2013-03-22 01:16:00,29.4,13.0,30.13,East,98,0.0,0.0,51,0.00,,,0.00,weatherlink.com 1.10,2013-03-22 05:16:00,
2013-03-22 01:31:00,29.4,13.0,30.13,East,82,0.0,2.0,51,0.00,,,0.00,weatherlink.com 1.10,2013-03-22 05:31:00,
2013-03-22 01:46:00,29.2,13.0,30.14,East,81,0.0,0.0,51,0.00,,,0.00,weatherlink.com 1.10,2013-03-22 05:46:00,
2013-03-22 02:01:00,29.2,13.0,30.14,SSE,163,0.0,0.0,50,0.00,,,0.00,weatherlink.com 1.10,2013-03-22 06:01:00,
2013-03-22 02:16:00,29.0,13.0,30.15,East,86,0.0,0.0,51,0.00,,,0.00,weatherlink.com 1.10,2013-03-22 06:16:00,
2013-03-22 02:31:00,28.9,15.0,30.16,ESE,116,0.0,0.0,57,0.00,,,0.00,weatherlink.com 1.10,2013-03-22 06:31:00,
2013-03-22 02:46:00,29.1,14.0,30.16,West,270,0.0,0.0,54,0.00,,,0.00,weatherlink.com 1.10,2013-03-22 06:46:00,
2013-03-22 03:01:00,29.2,14.0,30.16,West,271,0.0,0.0,54,0.00,,,0.00,weatherlink.com 1.10,2013-03-22 07:01:00,
2013-03-22 03:16:00,29.1,15.0,30.16,East,80,0.0,0.0,56,0.00,,,0.00,weatherlink.com 1.10,2013-03-22 07:16:00,
2013-03-22 03:32:00,28.3,16.0,30.15,East,80,0.0,0.0,60,0.00,,,0.00,weatherlink.com 1.10,2013-03-22 07:32:00,
2013-03-22 03:47:00,28.1,16.0,30.15,East,80,0.0,0.0,61,0.00,,,0.00,weatherlink.com 1.10,2013-03-22 07:47:00,
2013-03-22 04:02:00,28.2,16.0,30.15,East,81,0.0,0.0,60,0.00,,,0.00,weatherlink.com 1.10,2013-03-22 08:02:00,
2013-03-22 04:17:00,28.6,15.0,30.16,East,80,0.0,0.0,58,0.00,,,0.00,weatherlink.com 1.10,2013-03-22 08:17:00,
2013-03-22 04:32:00,29.0,16.0,30.16,East,80,0.0,0.0,58,0.00,,,0.00,weatherlink.com 1.10,2013-03-22 08:32:00,
2013-03-22 04:47:00,29.1,16.0,30.16,East,81,0.0,0.0,59,0.00,,,0.00,weatherlink.com 1.10,2013-03-22 08:47:00,
2013-03-22 05:02:00,28.9,19.0,30.17,East,80,0.0,0.0,66,0.00,,,0.00,weatherlink.com 1.10,2013-03-22 09:02:00,
2013-03-22 05:17:00,28.7,17.0,30.16,ENE,70,0.0,0.0,63,0.00,,,0.00,weatherlink.com 1.10,2013-03-22 09:17:00,
2013-03-22 05:32:00,28.8,18.0,30.16,ENE,72,0.0,0.0,63,0.00,,,0.00,weatherlink.com 1.10,2013-03-22 09:32:00,
2013-03-22 05:47:00,28.7,17.0,30.16,ENE,72,0.0,0.0,63,0.00,,,0.00,weatherlink.com 1.10,2013-03-22 09:47:00,
2013-03-22 06:02:00,28.9,18.0,30.16,ENE,72,0.0,0.0,63,0.00,,,0.00,weatherlink.com 1.10,2013-03-22 10:02:00,
2013-03-22 06:17:00,29.1,18.0,30.16,ENE,72,0.0,0.0,64,0.00,,,0.00,weatherlink.com 1.10,2013-03-22 10:17:00,
2013-03-22 06:32:00,29.3,19.0,30.17,ENE,72,0.0,0.0,65,0.00,,,0.00,weatherlink.com 1.10,2013-03-22 10:32:00,
2013-03-22 06:47:00,29.4,19.0,30.18,ENE,72,0.0,0.0,65,0.00,,,0.00,weatherlink.com 1.10,2013-03-22 10:47:00,
2013-03-22 07:02:00,29.5,19.0,30.18,ENE,72,0.0,0.0,64,0.00,,,0.00,weatherlink.com 1.10,2013-03-22 11:02:00,
2013-03-22 07:17:00,29.9,19.0,30.18,ENE,72,0.0,0.0,63,0.00,,,0.00,weatherlink.com 1.10,2013-03-22 11:17:00,
2013-03-22 07:32:00,30.2,16.0,30.18,ENE,72,0.0,0.0,57,0.00,,,0.00,weatherlink.com 1.10,2013-03-22 11:32:00,
2013-03-22 07:47:00,30.5,16.0,30.17,ENE,72,0.0,0.0,56,0.00,,,0.00,weatherlink.com 1.10,2013-03-22 11:47:00,
2013-03-22 08:02:00,30.6,18.0,30.18,ENE,72,0.0,0.0,61,0.00,,,0.00,weatherlink.com 1.10,2013-03-22 12:02:00,
2013-03-22 08:17:00,30.5,21.0,30.18,ENE,69,0.0,0.0,67,0.00,,,0.00,weatherlink.com 1.10,2013-03-22 12:17:00,
2013-03-22 08:32:00,30.6,21.0,30.19,ENE,70,0.0,0.0,67,0.00,,,0.00,weatherlink.com 1.10,2013-03-22 12:32:00,
2013-03-22 08:47:00,30.7,21.0,30.19,ENE,71,0.0,0.0,67,0.00,,,0.00,weatherlink.com 1.10,2013-03-22 12:47:00,
2013-03-22 09:02:00,31.2,21.0,30.20,ENE,71,0.0,0.0,66,0.00,,,0.00,weatherlink.com 1.10,2013-03-22 13:02:00,
2013-03-22 09:17:00,31.7,21.0,30.20,ENE,66,0.0,0.0,66,0.00,,,0.00,weatherlink.com 1.10,2013-03-22 13:17:00,
2013-03-22 09:32:00,32.3,21.0,30.20,ENE,65,0.0,0.0,64,0.00,,,0.00,weatherlink.com 1.10,2013-03-22 13:32:00,
2013-03-22 09:47:00,33.2,21.0,30.21,SW,235,0.0,0.0,60,0.00,,,0.00,weatherlink.com 1.10,2013-03-22 13:47:00,
2013-03-22 10:02:00,34.2,17.0,30.20,ENE,63,0.0,0.0,49,0.00,,,0.00,weatherlink.com 1.10,2013-03-22 14:02:00,
2013-03-22 10:17:00,34.7,17.0,30.20,NE,35,0.0,0.0,48,0.00,,,0.00,weatherlink.com 1.10,2013-03-22 14:17:00,
2013-03-22 10:32:00,35.6,16.0,30.20,NNE,23,0.0,0.0,45,0.00,,,0.00,weatherlink.com 1.10,2013-03-22 14:32:00,
2013-03-22 10:47:00,35.7,16.0,30.20,NNE,31,0.0,0.0,44,0.00,,,0.00,weatherlink.com 1.10,2013-03-22 14:47:00,
2013-03-22 11:02:00,36.1,15.0,30.20,NNW,342,0.0,0.0,43,0.00,,,0.00,weatherlink.com 1.10,2013-03-22 15:02:00,
2013-03-22 11:17:00,37.1,17.0,30.20,East,84,0.0,0.0,44,0.00,,,0.00,weatherlink.com 1.10,2013-03-22 15:17:00,
2013-03-22 11:32:00,37.3,18.0,30.20,WSW,237,0.0,0.0,45,0.00,,,0.00,weatherlink.com 1.10,2013-03-22 15:32:00,
2013-03-22 11:47:00,38.4,19.0,30.19,NE,34,0.0,0.0,45,0.00,,,0.00,weatherlink.com 1.10,2013-03-22 15:47:00,
2013-03-22 12:02:00,39.6,18.0,30.19,NE,53,0.0,0.0,42,0.00,,,0.00,weatherlink.com 1.10,2013-03-22 16:02:00,
2013-03-22 12:18:00,40.2,18.0,30.19,NW,316,0.0,0.0,40,0.00,,,0.00,weatherlink.com 1.10,2013-03-22 16:18:00,
2013-03-22 12:35:00,41.1,17.0,30.19,South,180,0.0,0.0,38,0.00,,,0.00,weatherlink.com 1.10,2013-03-22 16:35:00,
2013-03-22 12:48:00,41.6,19.0,30.20,WSW,255,0.0,0.0,40,0.00,,,0.00,weatherlink.com 1.10,2013-03-22 16:48:00,
2013-03-22 13:03:00,42.1,20.0,30.20,SSW,204,0.0,0.0,41,0.00,,,0.00,weatherlink.com 1.10,2013-03-22 17:03:00,
2013-03-22 13:18:00,43.8,20.0,30.19,NNE,15,0.0,0.0,39,0.00,,,0.00,weatherlink.com 1.10,2013-03-22 17:18:00,
2013-03-22 13:33:00,43.6,21.0,30.19,NE,44,0.0,1.0,41,0.00,,,0.00,weatherlink.com 1.10,2013-03-22 17:33:00,
2013-03-22 13:48:00,45.4,22.0,30.18,NNW,338,0.0,0.0,40,0.00,,,0.00,weatherlink.com 1.10,2013-03-22 17:48:00,
2013-03-22 14:03:00,46.5,23.0,30.18,East,90,0.0,1.0,39,0.00,,,0.00,weatherlink.com 1.10,2013-03-22 18:03:00,
2013-03-22 14:18:00,47.4,25.0,30.17,NE,45,1.0,1.0,42,0.00,,,0.00,weatherlink.com 1.10,2013-03-22 18:18:00,
2013-03-22 14:33:00,47.2,26.0,30.17,NW,305,0.0,1.0,44,0.00,,,0.00,weatherlink.com 1.10,2013-03-22 18:33:00,
2013-03-22 14:48:00,48.6,29.0,30.17,WNW,287,0.0,0.0,47,0.00,,,0.00,weatherlink.com 1.10,2013-03-22 18:48:00,
2013-03-22 15:03:00,48.0,29.0,30.16,WSW,258,0.0,0.0,48,0.00,,,0.00,weatherlink.com 1.10,2013-03-22 19:03:00,
2013-03-22 15:18:00,47.1,30.0,30.16,West,264,0.0,0.0,51,0.00,,,0.00,weatherlink.com 1.10,2013-03-22 19:18:00,
2013-03-22 15:33:00,46.6,30.0,30.16,West,264,0.0,0.0,52,0.00,,,0.00,weatherlink.com 1.10,2013-03-22 19:33:00,
2013-03-22 15:48:00,46.5,29.0,30.14,WSW,248,0.0,0.0,51,0.00,,,0.00,weatherlink.com 1.10,2013-03-22 19:48:00,
2013-03-22 16:03:00,46.7,29.0,30.14,WSW,254,0.0,0.0,50,0.00,,,0.00,weatherlink.com 1.10,2013-03-22 20:03:00,
2013-03-22 16:18:00,47.1,29.0,30.14,NNW,345,0.0,0.0,50,0.00,,,0.00,weatherlink.com 1.10,2013-03-22 20:18:00,
2013-03-22 16:33:00,47.6,31.0,30.13,WSW,255,0.0,0.0,52,0.00,,,0.00,weatherlink.com 1.10,2013-03-22 20:33:00,
2013-03-22 16:48:00,47.6,31.0,30.13,WNW,282,0.0,0.0,52,0.00,,,0.00,weatherlink.com 1.10,2013-03-22 20:48:00,
2013-03-22 17:03:00,47.1,31.0,30.14,SSW,212,0.0,0.0,53,0.00,,,0.00,weatherlink.com 1.10,2013-03-22 21:03:00,
2013-03-22 17:18:00,47.3,31.0,30.13,WSW,253,0.0,0.0,53,0.00,,,0.00,weatherlink.com 1.10,2013-03-22 21:18:00,
2013-03-22 17:33:00,47.2,31.0,30.14,NW,323,0.0,0.0,54,0.00,,,0.00,weatherlink.com 1.10,2013-03-22 21:33:00,
2013-03-22 17:48:00,46.9,30.0,30.14,SW,219,0.0,0.0,53,0.00,,,0.00,weatherlink.com 1.10,2013-03-22 21:48:00,
2013-03-22 18:05:00,46.6,30.0,30.14,WSW,257,0.0,0.0,53,0.00,,,0.00,weatherlink.com 1.10,2013-03-22 22:05:00,
2013-03-22 18:18:00,46.5,32.0,30.14,West,266,0.0,0.0,57,0.00,,,0.00,weatherlink.com 1.10,2013-03-22 22:18:00,
2013-03-22 18:48:00,45.8,31.0,30.14,West,266,0.0,0.0,57,0.00,,,0.00,weatherlink.com 1.10,2013-03-22 22:48:00,
2013-03-22 19:03:00,45.5,29.0,30.15,West,266,0.0,0.0,53,0.00,,,0.00,weatherlink.com 1.10,2013-03-22 23:03:00,
2013-03-22 19:18:00,45.2,29.0,30.15,West,266,0.0,0.0,53,0.00,,,0.00,weatherlink.com 1.10,2013-03-22 23:18:00,
2013-03-22 19:33:00,44.8,28.0,30.15,West,266,0.0,0.0,52,0.00,,,0.00,weatherlink.com 1.10,2013-03-22 23:33:00,
2013-03-22 19:48:00,44.5,28.0,30.15,West,266,0.0,0.0,52,0.00,,,0.00,weatherlink.com 1.10,2013-03-22 23:48:00,
2013-03-22 20:03:00,44.3,28.0,30.15,West,266,0.0,0.0,54,0.00,,,0.00,weatherlink.com 1.10,2013-03-23 00:03:00,
2013-03-22 20:18:00,43.9,28.0,30.15,West,266,0.0,0.0,54,0.00,,,0.00,weatherlink.com 1.10,2013-03-23 00:18:00,
2013-03-22 20:33:00,43.8,29.0,30.15,West,266,0.0,0.0,56,0.00,,,0.00,weatherlink.com 1.10,2013-03-23 00:33:00,
2013-03-22 20:48:00,43.5,30.0,30.16,WSW,244,0.0,0.0,60,0.00,,,0.00,weatherlink.com 1.10,2013-03-23 00:48:00,
2013-03-22 21:03:00,43.6,32.0,30.16,West,263,0.0,0.0,64,0.00,,,0.00,weatherlink.com 1.10,2013-03-23 01:03:00,
2013-03-22 21:18:00,44.3,32.0,30.17,NW,305,1.0,2.0,63,0.00,,,0.00,weatherlink.com 1.10,2013-03-23 01:18:00,
2013-03-22 21:33:00,44.5,32.0,30.17,West,268,0.0,1.0,63,0.00,,,0.00,weatherlink.com 1.10,2013-03-23 01:33:00,
2013-03-22 21:48:00,44.5,33.0,30.17,West,263,0.0,2.0,64,0.00,,,0.00,weatherlink.com 1.10,2013-03-23 01:48:00,
2013-03-22 22:03:00,44.3,33.0,30.17,West,267,0.0,0.0,64,0.00,,,0.00,weatherlink.com 1.10,2013-03-23 02:03:00,
2013-03-22 22:18:00,44.1,33.0,30.17,WSW,252,0.0,0.0,65,0.00,,,0.00,weatherlink.com 1.10,2013-03-23 02:18:00,
2013-03-22 22:33:00,44.0,33.0,30.16,East,93,0.0,1.0,65,0.00,,,0.00,weatherlink.com 1.10,2013-03-23 02:33:00,
2013-03-22 22:48:00,44.1,33.0,30.17,NW,314,0.0,0.0,64,0.00,,,0.00,weatherlink.com 1.10,2013-03-23 02:48:00,
2013-03-22 23:03:00,43.6,33.0,30.18,WSW,249,0.0,0.0,67,0.00,,,0.00,weatherlink.com 1.10,2013-03-23 03:03:00,
2013-03-22 23:18:00,43.6,32.0,30.18,West,263,0.0,0.0,65,0.00,,,0.00,weatherlink.com 1.10,2013-03-23 03:18:00,
2013-03-22 23:33:00,43.7,34.0,30.18,SW,231,0.0,0.0,68,0.00,,,0.00,weatherlink.com 1.10,2013-03-23 03:33:00,
2013-03-22 23:48:00,43.2,34.0,30.17,SW,235,0.0,0.0,69,0.00,,,0.00,weatherlink.com 1.10,2013-03-23 03:48:00,